Regional Weather Roundup
Issued by NWS

Home | Current Version | Previous Version | Graphics & Text | Print | Product List | Glossary On
Versions: 1 2 3 4 5 6 7 8 9 10 11 12 13 14 15 16 17 18 19 20 21 22 23 24 25 26 27 28 29 30 31 32 33 34 35 36 37 38 39 40 41 42 43 44 45 46 47 48 49 50
604
ASUS43 KLMK 281210
RWRKY
KENTUCKY REGIONAL WEATHER ROUNDUP
NATIONAL WEATHER SERVICE LOUISVILLE KY
800 AM EDT THU APR 28 2016

NOTE "FAIR" INDICATES FEW OR NO CLOUDS BELOW 12,000 FEET
WITH NO SIGNIFICANT WEATHER AND/OR OBSTRUCTIONS TO VISIBILITY.

KYZ001>023-026-027-061>063-070>075-281300-
WESTERN AND SOUTH CENTRAL KENTUCKY

CITY           SKY/WX    TMP DP  RH WIND       PRES   REMARKS
PADUCAH        SUNNY     64  60  87 W5        29.81R
HENDERSON      SUNNY     63  57  82 SW5       29.78R
OWENSBORO      SUNNY     65  65 100 S7        29.81R FOG
HOPKINSVILLE   PTSUNNY   66  66 100 S6        29.83R
BOWLING GREEN  PTSUNNY   67  66  97 S5        29.84R
GLASGOW        CLOUDY    65  65 100 SW5       29.86R
$$

KYZ024-025-028>034-038-045-046-053-281300-
NORTH CENTRAL KENTUCKY

CITY           SKY/WX    TMP DP  RH WIND       PRES   REMARKS
LOUISVILLE/SDF LGT RAIN  63  60  90 S7        29.81R
LOUISVILLE/LOU PTSUNNY   62  60  93 S7        29.81R
FORT KNOX      MOSUNNY   62  62 100 S5        29.80S
$$

KYZ035>037-039>044-047>052-055>060-089>105-281300-
NORTHEAST KENTUCKY

CITY           SKY/WX    TMP DP  RH WIND       PRES   REMARKS
LEXINGTON      MOSUNNY   60  58  92 S5        29.84R
COVINGTON      CLOUDY    61  60  97 SE5       29.81R FOG
FRANKFORT      MOSUNNY   62  58  86 S7        29.82R
$$

KYZ054-064>069-076>088-106>120-281300-
SOUTHEAST KENTUCKY

CITY           SKY/WX    TMP DP  RH WIND       PRES   REMARKS
JACKSON        LGT RAIN  59  58  96 CALM      29.89S VSB 1/4
LONDON         CLOUDY    62  59  90 S3        29.88R
SOMERSET       LGT RAIN  61  61 100 CALM      29.89R
MIDDLESBORO    CLOUDY    62  62 100 CALM      29.92R
MONTICELLO     CLOUDY    65  63  93 W13       29.89R
$$





USA.gov is the U.S. government's official web portal to all federal, state and local government web resources and services.